When you browse on this site, cookies collect data to enhance your experience and personalize the content and advertising you see.
Visit our Privacy Policy to learn more. By continuing to use the site, you agree to this use of cookies and data.

Hourly Weather Grudino

Today, 5 July, Sunday

Time Temperature Precipitation Wind Pressure Humidity
00:00 +16°C° 0 mm 2 mps 740 mmHg 90%
01:00 +15°C° 0 mm 2 mps 741 mmHg 91%
02:00 +15°C° 0 mm 2 mps 741 mmHg 92%
03:00 +15°C° 0 mm 2 mps 741 mmHg 91%
04:00 +16°C° 0 mm 2 mps 740 mmHg 89%
05:00 +16°C° 0 mm 1 mps 740 mmHg 88%
06:00 +19°C° 0 mm 1 mps 740 mmHg 82%
07:00 +21°C° 0 mm 1 mps 741 mmHg 75%
08:00 +21°C° 0 mm 2 mps 741 mmHg 68%
09:00 +23°C° 0 mm 2 mps 740 mmHg 65%
10:00 +24°C° 0 mm 3 mps 740 mmHg 63%
11:00 +25°C° 0 mm 3 mps 740 mmHg 60%
12:00 +25°C° 0 mm 3 mps 740 mmHg 59%
13:00 +26°C° 0 mm 4 mps 739 mmHg 58%
14:00 +26°C° 0 mm 4 mps 739 mmHg 57%
15:00 +26°C° 0.1 mm 3 mps 739 mmHg 61%
16:00 +26°C° 0.1 mm 3 mps 739 mmHg 65%
17:00 +26°C° 0.1 mm 3 mps 739 mmHg 69%
18:00 +24°C° 0.1 mm 2 mps 738 mmHg 75%
19:00 +21°C° 0.1 mm 2 mps 738 mmHg 80%
20:00 +19°C° 0.1 mm 2 mps 738 mmHg 86%
21:00 +18°C° 0 mm 2 mps 738 mmHg 88%
22:00 +18°C° 0 mm 1 mps 738 mmHg 90%
23:00 +16°C° 0 mm 1 mps 738 mmHg 92%

Tomorrow, 6 July, Monday

Time Temperature Precipitation Wind Pressure Humidity
00:00 +16°C° 0 mm 1 mps 738 mmHg 93%
01:00 +16°C° 0 mm 2 mps 738 mmHg 93%
02:00 +15°C° 0 mm 2 mps 738 mmHg 94%
03:00 +16°C° 0 mm 2 mps 738 mmHg 93%
04:00 +17°C° 0 mm 3 mps 737 mmHg 91%
05:00 +17°C° 0 mm 4 mps 737 mmHg 90%
06:00 +19°C° 0 mm 4 mps 737 mmHg 86%
07:00 +20°C° 0 mm 5 mps 737 mmHg 81%
08:00 +22°C° 0 mm 5 mps 737 mmHg 76%
09:00 +23°C° 0 mm 5 mps 737 mmHg 73%
10:00 +25°C° 0 mm 5 mps 737 mmHg 71%
11:00 +26°C° 0 mm 5 mps 738 mmHg 68%
12:00 +26°C° 0.2 mm 5 mps 737 mmHg 71%
13:00 +26°C° 0.2 mm 4 mps 737 mmHg 75%
14:00 +26°C° 0.2 mm 3 mps 737 mmHg 78%
15:00 +26°C° 0.2 mm 3 mps 737 mmHg 79%
16:00 +26°C° 0.2 mm 3 mps 737 mmHg 80%
17:00 +26°C° 0.2 mm 3 mps 737 mmHg 81%
18:00 +25°C° 0 mm 3 mps 737 mmHg 84%
19:00 +24°C° 0 mm 2 mps 737 mmHg 87%
20:00 +21°C° 0 mm 2 mps 738 mmHg 90%
21:00 +21°C° 0.1 mm 2 mps 738 mmHg 91%
22:00 +20°C° 0.1 mm 2 mps 738 mmHg 93%
23:00 +20°C° 0.1 mm 2 mps 738 mmHg 95%

Day after tomorrow, 7 July, Tuesday

Time Temperature Precipitation Wind Pressure Humidity
00:00 +19°C° 0 mm 2 mps 738 mmHg 95%
01:00 +19°C° 0 mm 3 mps 738 mmHg 96%
02:00 +19°C° 0 mm 3 mps 738 mmHg 96%
03:00 +19°C° 0 mm 3 mps 738 mmHg 96%
04:00 +20°C° 0 mm 3 mps 738 mmHg 95%
05:00 +20°C° 0 mm 3 mps 738 mmHg 95%
06:00 +21°C° 0.1 mm 3 mps 738 mmHg 92%
07:00 +22°C° 0.1 mm 3 mps 738 mmHg 88%
08:00 +24°C° 0.1 mm 3 mps 738 mmHg 85%
09:00 +25°C° 1.1 mm 3 mps 738 mmHg 84%
10:00 +25°C° 1.1 mm 3 mps 738 mmHg 83%
11:00 +26°C° 1.1 mm 3 mps 738 mmHg 82%
12:00 +26°C° 1.4 mm 3 mps 738 mmHg 82%
13:00 +26°C° 1.4 mm 3 mps 738 mmHg 83%
14:00 +26°C° 1.4 mm 4 mps 738 mmHg 83%
15:00 +25°C° 1.9 mm 4 mps 738 mmHg 85%
16:00 +23°C° 1.9 mm 4 mps 738 mmHg 87%
17:00 +22°C° 1.9 mm 3 mps 738 mmHg 90%
18:00 +21°C° 1 mm 3 mps 738 mmHg 92%
19:00 +20°C° 1 mm 3 mps 738 mmHg 94%
20:00 +19°C° 1 mm 2 mps 738 mmHg 96%
21:00 +18°C° 0.1 mm 2 mps 738 mmHg 96%
22:00 +17°C° 0.1 mm 2 mps 739 mmHg 96%
23:00 +17°C° 0.1 mm 2 mps 739 mmHg 96%

8 July, Wednesday

Time Temperature Precipitation Wind Pressure Humidity
00:00 +16°C° 0 mm 2 mps 739 mmHg 94%
01:00 +15°C° 0 mm 2 mps 739 mmHg 93%
02:00 +14°C° 0 mm 2 mps 739 mmHg 92%
03:00 +14°C° 0 mm 2 mps 739 mmHg 91%
04:00 +15°C° 0 mm 2 mps 739 mmHg 90%
05:00 +15°C° 0 mm 1 mps 740 mmHg 89%
06:00 +15°C° 0.3 mm 2 mps 739 mmHg 89%
07:00 +16°C° 0.3 mm 2 mps 739 mmHg 89%
08:00 +16°C° 0.3 mm 3 mps 739 mmHg 89%
09:00 +16°C° 1.1 mm 3 mps 740 mmHg 90%
10:00 +15°C° 1.1 mm 4 mps 740 mmHg 92%
11:00 +14°C° 1.1 mm 4 mps 740 mmHg 94%
12:00 +14°C° 0.6 mm 4 mps 740 mmHg 95%
13:00 +14°C° 0.6 mm 4 mps 739 mmHg 95%
14:00 +14°C° 0.6 mm 4 mps 739 mmHg 96%
15:00 +14°C° 0.3 mm 3 mps 739 mmHg 95%
16:00 +16°C° 0.3 mm 3 mps 739 mmHg 95%
17:00 +16°C° 0.3 mm 3 mps 739 mmHg 94%
18:00 +16°C° 0.3 mm 3 mps 739 mmHg 95%
19:00 +15°C° 0.3 mm 2 mps 739 mmHg 96%
20:00 +15°C° 0.3 mm 2 mps 739 mmHg 97%
21:00 +13°C° 0 mm 3 mps 739 mmHg 97%
22:00 +13°C° 0 mm 3 mps 740 mmHg 97%
23:00 +13°C° 0 mm 3 mps 740 mmHg 97%

9 July, Thursday

Time Temperature Precipitation Wind Pressure Humidity
00:00 +13°C° 0 mm 3 mps 740 mmHg 97%
01:00 +13°C° 0 mm 2 mps 740 mmHg 97%
02:00 +13°C° 0 mm 2 mps 739 mmHg 97%
03:00 +13°C° 0.2 mm 2 mps 740 mmHg 97%
04:00 +13°C° 0.2 mm 2 mps 740 mmHg 96%
05:00 +13°C° 0.2 mm 2 mps 740 mmHg 96%
06:00 +14°C° 0.4 mm 2 mps 740 mmHg 96%
07:00 +14°C° 0.4 mm 2 mps 740 mmHg 96%
08:00 +14°C° 0.4 mm 2 mps 740 mmHg 96%
09:00 +14°C° 0.2 mm 2 mps 740 mmHg 96%
10:00 +15°C° 0.2 mm 2 mps 740 mmHg 95%
11:00 +15°C° 0.2 mm 2 mps 740 mmHg 95%
12:00 +15°C° 0.2 mm 2 mps 740 mmHg 95%
13:00 +15°C° 0.2 mm 2 mps 740 mmHg 95%
14:00 +15°C° 0.2 mm 1 mps 740 mmHg 95%
15:00 +15°C° 0.1 mm 1 mps 740 mmHg 93%
16:00 +15°C° 0.1 mm 1 mps 740 mmHg 92%
17:00 +16°C° 0.1 mm 1 mps 741 mmHg 90%
18:00 +15°C° 0 mm 1 mps 740 mmHg 89%
19:00 +15°C° 0 mm 1 mps 740 mmHg 88%
20:00 +14°C° 0 mm 1 mps 740 mmHg 87%
21:00 +14°C° 0 mm 1 mps 740 mmHg 89%
22:00 +14°C° 0 mm 1 mps 740 mmHg 90%
23:00 +13°C° 0 mm 2 mps 740 mmHg 91%

10 July, Friday

Time Temperature Precipitation Wind Pressure Humidity
00:00 +13°C° 0.3 mm 2 mps 740 mmHg 92%
01:00 +13°C° 0.3 mm 2 mps 740 mmHg 94%
02:00 +13°C° 0.3 mm 2 mps 740 mmHg 95%
03:00 +13°C° 0.6 mm 2 mps 740 mmHg 96%
04:00 +12°C° 0.6 mm 3 mps 741 mmHg 96%
05:00 +12°C° 0.6 mm 3 mps 741 mmHg 97%
06:00 +13°C° 0.2 mm 3 mps 741 mmHg 93%
07:00 +15°C° 0.2 mm 2 mps 742 mmHg 90%
08:00 +16°C° 0.2 mm 2 mps 742 mmHg 86%
09:00 +17°C° 0.1 mm 2 mps 743 mmHg 78%
10:00 +19°C° 0.1 mm 3 mps 743 mmHg 70%
11:00 +20°C° 0.1 mm 3 mps 744 mmHg 61%
12:00 +21°C° 0 mm 3 mps 744 mmHg 58%
13:00 +21°C° 0 mm 3 mps 744 mmHg 55%
14:00 +22°C° 0 mm 3 mps 744 mmHg 52%
15:00 +22°C° 0 mm 3 mps 745 mmHg 56%
16:00 +21°C° 0 mm 3 mps 745 mmHg 60%
17:00 +21°C° 0 mm 2 mps 745 mmHg 64%
18:00 +19°C° 0 mm 2 mps 746 mmHg 68%
19:00 +18°C° 0 mm 2 mps 746 mmHg 71%
20:00 +16°C° 0 mm 2 mps 746 mmHg 75%
21:00 +15°C° 0 mm 1 mps 747 mmHg 74%
22:00 +14°C° 0 mm 1 mps 747 mmHg 74%
23:00 +13°C° 0 mm 1 mps 748 mmHg 73%
Show more